国际通讯卫星-101星 (NSS-101 (INTELSAT 101))

导读

NSS K,又称INTELSAT K,是一颗由荷兰(NL)发射的卫星,于1992年6月10日08:00发射升空,是早期国际通信卫星(Intelsat)家族的重要成员。该卫星主要服务于跨区域通信业务,为全球商业通信、媒体传输提供稳定的空间基础设施支持,是九十年代国际卫星通信网络布局中关键节点,见证了早期全球卫星通信产业发展历程。

Basic Information
目录编号:
21989
目录名称:
NSS K (INTELSAT K)
国际标识:
1992-032A
轨道中心:
EARTH
卫星名称:
国际通讯卫星-101星
卫星全名:
国际通讯卫星-101星 (NSS-101 (INTELSAT 101))
卫星状态:
在轨 (已飞行12512 天)
发射日期:
1992-06-10 UTC
国别 :
荷兰 (NL)
星等 :
--
This satellite is enrolled in the Space Conjunction Data Service (SCDS) and the current flight risk assessment level is: No High Risk
Orbit Information
数据来源 国际轨道数据 AOE轨道数据
星历时间 2026-09-12T03:53:39+0800
11小时前
查看轨道信息
2026-09-11T04:00:00+0800
1天前
查看轨道信息
半长轴 43054.223km 43054.164km
偏心率 0.0077239 0.00772
轨道倾角 15.042° 15.041°
近地点辐角 4.563° 4.867°
升交点赤经 11.718° 11.729°
平近点角 359.856° 11.229°
近地点 36343.539km 36343.648km
远地点 37008.633km 37008.406km
周期 1481.779分钟 1481.776分钟
每日圈数 0.971805 0.971807
Detailed Information
卫星平台:
Intelsat VA
平衡模式:
三轴稳定
覆盖范围:
全球
运营商:
国际卫星通信公司
运营商所在国:
美国
制造商(研发单位):
休斯公司
制造商所在国:
美国
使用方式:
暂无
Satellite Introduction
从1965年4月至1984年3月,国际通信卫星组织发射了5代、6种不同性能的卫星共计35颗,除6颗卫星因运载火箭和远地点发动机故障而发射失败外,其余29颗卫星均被送到了预定的静止轨道位置。1984年8月前后,国际通信卫星组织利用部署在大西洋、太平洋、印度洋上空的15颗国际通信卫星,为遍布世界各地170多个国家或地区提供电话、电传、电报、电视和数据传输等电信业务;该卫星已退役。
2D Orbit Map
3D Orbit Map
Orbit Altitude Analysis Chart
Orbit Inclination Analysis Chart
Orbit Comprehensive Analysis Chart
View Comprehensive Chart
Miss Distance Evolution Trend with All Objects
Collision Probability Evolution Trend with All Objects